• en France
  • Liste des pays
  • À 7 jours
  • Température de l'eau
  • Carte satellitaire
  • Carte météo
  • Widgets météo
  • user-avatar
    Se connecter

    Météo par heure à Salgótarján

    Ce jour, 20 Septembre, Jeudi

    Heure Température Précipitation Vent Pression Humidité
    00:00 +19°C° 0 mm 1 m/s 736 mmHg 67%
    01:00 +18°C° 0 mm 1 m/s 736 mmHg 69%
    02:00 +18°C° 0 mm 1 m/s 736 mmHg 70%
    03:00 +18°C° 0 mm 1 m/s 735 mmHg 71%
    04:00 +16°C° 0 mm 1 m/s 735 mmHg 73%
    05:00 +18°C° 0 mm 1 m/s 736 mmHg 71%
    06:00 +18°C° 0 mm 1 m/s 736 mmHg 70%
    07:00 +19°C° 0 mm 1 m/s 736 mmHg 69%
    08:00 +21°C° 0 mm 1 m/s 736 mmHg 62%
    09:00 +23°C° 0 mm 1 m/s 736 mmHg 56%
    10:00 +25°C° 0 mm 1 m/s 736 mmHg 50%
    11:00 +26°C° 0 mm 2 m/s 736 mmHg 46%
    12:00 +27°C° 0 mm 2 m/s 736 mmHg 43%
    13:00 +28°C° 0 mm 2 m/s 736 mmHg 39%
    14:00 +28°C° 0 mm 1 m/s 735 mmHg 40%
    15:00 +27°C° 0 mm 1 m/s 735 mmHg 41%
    16:00 +27°C° 0 mm 1 m/s 735 mmHg 42%
    17:00 +25°C° 0 mm 1 m/s 735 mmHg 47%
    18:00 +23°C° 0 mm 1 m/s 734 mmHg 51%
    19:00 +21°C° 0 mm 1 m/s 734 mmHg 56%
    20:00 +20°C° 0 mm 1 m/s 734 mmHg 58%
    21:00 +20°C° 0 mm 1 m/s 734 mmHg 60%
    22:00 +19°C° 0 mm 1 m/s 734 mmHg 62%
    23:00 +19°C° 0 mm 1 m/s 734 mmHg 64%

    Demain, 21 Septembre, Vendredi

    Heure Température Précipitation Vent Pression Humidité
    00:00 +18°C° 0 mm 1 m/s 734 mmHg 65%
    01:00 +18°C° 0 mm 1 m/s 734 mmHg 67%
    02:00 +18°C° 0 mm 1 m/s 734 mmHg 68%
    03:00 +16°C° 0 mm 1 m/s 734 mmHg 70%
    04:00 +16°C° 0 mm 1 m/s 733 mmHg 71%
    05:00 +18°C° 0 mm 1 m/s 734 mmHg 69%
    06:00 +18°C° 0 mm 1 m/s 734 mmHg 68%
    07:00 +19°C° 0 mm 1 m/s 734 mmHg 66%
    08:00 +21°C° 0 mm 1 m/s 734 mmHg 59%
    09:00 +23°C° 0 mm 2 m/s 734 mmHg 52%
    10:00 +25°C° 0 mm 2 m/s 734 mmHg 44%
    11:00 +26°C° 0 mm 2 m/s 734 mmHg 41%
    12:00 +28°C° 0 mm 3 m/s 733 mmHg 37%
    13:00 +29°C° 0 mm 3 m/s 733 mmHg 33%
    14:00 +28°C° 0 mm 3 m/s 733 mmHg 34%
    15:00 +28°C° 0 mm 2 m/s 732 mmHg 35%
    16:00 +28°C° 0 mm 2 m/s 732 mmHg 36%
    17:00 +26°C° 0 mm 2 m/s 732 mmHg 39%
    18:00 +24°C° 0 mm 1 m/s 732 mmHg 42%
    19:00 +21°C° 0 mm 1 m/s 732 mmHg 45%
    20:00 +21°C° 0 mm 1 m/s 732 mmHg 44%
    21:00 +20°C° 0 mm 1 m/s 732 mmHg 44%
    22:00 +20°C° 0 mm 1 m/s 732 mmHg 44%
    23:00 +19°C° 0 mm 1 m/s 732 mmHg 45%

    Après-demain, 22 Septembre, Samedi

    Heure Température Précipitation Vent Pression Humidité
    00:00 +19°C° 0 mm 1 m/s 732 mmHg 45%
    01:00 +18°C° 0 mm 1 m/s 732 mmHg 46%
    02:00 +18°C° 0 mm 1 m/s 732 mmHg 48%
    03:00 +18°C° 0 mm 1 m/s 732 mmHg 49%
    04:00 +18°C° 0 mm 1 m/s 732 mmHg 50%
    05:00 +19°C° 0 mm 1 m/s 733 mmHg 52%
    06:00 +19°C° 0 mm 1 m/s 733 mmHg 53%
    07:00 +20°C° 0 mm 1 m/s 733 mmHg 55%
    08:00 +20°C° 0 mm 2 m/s 734 mmHg 53%
    09:00 +22°C° 0 mm 3 m/s 734 mmHg 50%
    10:00 +23°C° 0 mm 4 m/s 735 mmHg 48%
    11:00 +22°C° 0 mm 4 m/s 735 mmHg 48%
    12:00 +21°C° 0 mm 5 m/s 735 mmHg 48%
    13:00 +20°C° 0 mm 5 m/s 735 mmHg 48%
    14:00 +17°C° 0 mm 5 m/s 735 mmHg 51%
    15:00 +17°C° 0 mm 4 m/s 735 mmHg 54%
    16:00 +14°C° 0 mm 4 m/s 735 mmHg 56%
    17:00 +14°C° 0.1 mm 4 m/s 735 mmHg 58%
    18:00 +13°C° 0.1 mm 3 m/s 735 mmHg 59%
    19:00 +12°C° 0.1 mm 3 m/s 736 mmHg 61%
    20:00 +12°C° 0 mm 3 m/s 736 mmHg 63%
    21:00 +11°C° 0 mm 3 m/s 736 mmHg 64%
    22:00 +12°C° 0 mm 2 m/s 736 mmHg 66%
    23:00 +10°C° 0 mm 2 m/s 736 mmHg 69%

    23 Septembre, Dimanche

    Heure Température Précipitation Vent Pression Humidité
    00:00 +10°C° 0 mm 2 m/s 736 mmHg 72%
    01:00 +10°C° 0 mm 2 m/s 737 mmHg 74%
    02:00 +9°C° 0 mm 2 m/s 736 mmHg 76%
    03:00 +10°C° 0 mm 1 m/s 736 mmHg 78%
    04:00 +10°C° 0 mm 1 m/s 736 mmHg 80%
    05:00 +10°C° 0 mm 1 m/s 736 mmHg 78%
    06:00 +11°C° 0 mm 1 m/s 736 mmHg 76%
    07:00 +12°C° 0 mm 1 m/s 736 mmHg 73%
    08:00 +13°C° 0 mm 1 m/s 737 mmHg 69%
    09:00 +14°C° 0 mm 1 m/s 737 mmHg 65%
    10:00 +15°C° 0 mm 2 m/s 737 mmHg 60%
    11:00 +16°C° 0 mm 2 m/s 736 mmHg 57%
    12:00 +17°C° 0 mm 2 m/s 736 mmHg 54%
    13:00 +17°C° 0 mm 2 m/s 735 mmHg 50%
    14:00 +18°C° 0 mm 2 m/s 735 mmHg 50%
    15:00 +18°C° 0 mm 2 m/s 734 mmHg 50%
    16:00 +18°C° 0 mm 2 m/s 733 mmHg 49%
    17:00 +17°C° 0 mm 2 m/s 733 mmHg 53%
    18:00 +16°C° 0 mm 2 m/s 732 mmHg 57%
    19:00 +15°C° 0 mm 1 m/s 732 mmHg 61%
    20:00 +14°C° 0 mm 1 m/s 731 mmHg 61%
    21:00 +14°C° 0 mm 2 m/s 730 mmHg 61%
    22:00 +14°C° 0 mm 2 m/s 729 mmHg 61%
    23:00 +14°C° 0 mm 2 m/s 728 mmHg 60%

    24 Septembre, Lundi

    Heure Température Précipitation Vent Pression Humidité
    00:00 +14°C° 0 mm 2 m/s 727 mmHg 59%
    01:00 +14°C° 0 mm 2 m/s 726 mmHg 59%
    02:00 +13°C° 0 mm 3 m/s 725 mmHg 59%
    03:00 +14°C° 0 mm 3 m/s 724 mmHg 58%
    04:00 +14°C° 0 mm 3 m/s 722 mmHg 58%
    05:00 +13°C° 2.3 mm 4 m/s 723 mmHg 65%
    06:00 +13°C° 2.3 mm 6 m/s 723 mmHg 71%
    07:00 +12°C° 2.3 mm 7 m/s 723 mmHg 77%
    08:00 +11°C° 0.8 mm 7 m/s 724 mmHg 79%
    09:00 +11°C° 0.8 mm 8 m/s 724 mmHg 80%
    10:00 +10°C° 0.8 mm 8 m/s 725 mmHg 82%
    11:00 +11°C° 0.2 mm 9 m/s 725 mmHg 73%
    12:00 +12°C° 0.2 mm 9 m/s 726 mmHg 65%
    13:00 +12°C° 0.2 mm 10 m/s 727 mmHg 57%
    14:00 +12°C° 0 mm 10 m/s 727 mmHg 54%
    15:00 +12°C° 0 mm 9 m/s 728 mmHg 51%
    16:00 +12°C° 0 mm 9 m/s 729 mmHg 48%
    17:00 +12°C° 0 mm 8 m/s 730 mmHg 50%
    18:00 +11°C° 0 mm 7 m/s 730 mmHg 52%
    19:00 +10°C° 0 mm 5 m/s 731 mmHg 55%
    20:00 +9°C° 0 mm 5 m/s 732 mmHg 56%
    21:00 +9°C° 0 mm 6 m/s 732 mmHg 58%
    22:00 +9°C° 0 mm 6 m/s 732 mmHg 60%
    23:00 +8°C° 0 mm 6 m/s 733 mmHg 61%

    25 Septembre, Mardi

    Heure Température Précipitation Vent Pression Humidité
    00:00 +8°C° 0 mm 6 m/s 733 mmHg 62%
    01:00 +8°C° 0 mm 6 m/s 734 mmHg 63%
    02:00 +7°C° 0 mm 5 m/s 734 mmHg 64%
    03:00 +7°C° 0 mm 5 m/s 734 mmHg 65%
    04:00 +7°C° 0 mm 5 m/s 735 mmHg 66%
    05:00 +7°C° 0 mm 5 m/s 735 mmHg 65%
    06:00 +7°C° 0 mm 6 m/s 736 mmHg 64%
    07:00 +7°C° 0 mm 6 m/s 736 mmHg 63%
    08:00 +8°C° 0 mm 6 m/s 736 mmHg 58%
    09:00 +9°C° 0 mm 6 m/s 737 mmHg 52%
    10:00 +10°C° 0 mm 6 m/s 737 mmHg 46%
    11:00 +11°C° 0 mm 6 m/s 737 mmHg 45%
    12:00 +12°C° 0 mm 5 m/s 737 mmHg 44%
    13:00 +13°C° 0 mm 5 m/s 737 mmHg 43%
    14:00 +12°C° 0 mm 5 m/s 737 mmHg 44%
    15:00 +12°C° 0 mm 5 m/s 737 mmHg 45%
    16:00 +12°C° 0 mm 5 m/s 737 mmHg 46%
    17:00 +10°C° 0 mm 4 m/s 738 mmHg 52%
    18:00 +8°C° 0 mm 4 m/s 738 mmHg 57%
    19:00 +8°C° 0 mm 3 m/s 739 mmHg 62%
    20:00 +7°C° 0 mm 3 m/s 739 mmHg 66%
    21:00 +5°C° 0 mm 3 m/s 739 mmHg 70%
    22:00 +6°C° 0 mm 2 m/s 740 mmHg 73%
    23:00 +5°C° 0 mm 2 m/s 740 mmHg 75%
    Voir plus